Weather History for Breckenridge, TX

Change the Weather History Date:

Tuesday, November 26, 2013

  Actual Average (KABI) Record (KABI)
Temperature  
Mean Temperature 43 °F 50 °F  
Max Temperature 52 °F 62 °F 86 °F (1965)
Min Temperature 34 °F 39 °F 16 °F (1993)
Degree Days  
Heating Degree Days 22 15  
Month to date heating degree days 266  
Since 1 July heating degree days 370  
Cooling Degree Days 0 0  
Month to date cooling degree days 15  
Year to date cooling degree days 2404  
Moisture  
Dew Point 29 °F    
Average Humidity 64    
Maximum Humidity 95    
Minimum Humidity 31    
Precipitation  
Precipitation 0.00 in 0.04 in 2.14 in (1888)
Month to date precipitation 1.26  
Year to date precipitation 23.44  
Sea Level Pressure  
Sea Level Pressure 30.28 in    
Wind  
Wind Speed 11 mph (NNW)    
Max Wind Speed 24 mph    
Max Gust Speed 36 mph    
Visibility 10 miles    
Events      
T = Trace of Precipitation, MM = Missing Value Source: NWS Daily Summary

Daily Weather History Graph

Daily Weather History Graph

Search for Another Location

Airport:

Trip Planner

Search our weather history database for the weather conditions in past years. The results will help you decide how hot, cold, wet, or windy it might be!

Date:

Astronomy

Nov. 26, 2013 Rise Set
Actual Time 7:15 AM CST 5:30 PM CST
Civil Twilight 6:49 AM CST 5:56 PM CST
Nautical Twilight 6:18 AM CST 6:26 PM CST
Astronomical Twilight 5:49 AM CST 6:56 PM CST
Moon 12:41 AM CST (11/26) 1:18 PM CST (11/26)
Length of Visible Light 11h 07m
Length of Day
10h 14m
Last Quarter, 41% of the Moon is Illuminated
Nov 26
Last Quarter
Dec 2
New
Dec 9
First Quarter
Dec 17
Full
Dec 25
Last Quarter

Hourly Weather History & Observations

Time (CST) Temp. Windchill Dew Point Humidity Pressure Visibility Wind Dir Wind Speed Gust Speed Precip Events Conditions
12:15 AM 36.0 °F 29.6 °F 34.5 °F 94% 30.22 in 10.0 mi North 8.1 mph - N/A   Overcast
12:35 AM 36.0 °F 28.5 °F 32.5 °F 87% 30.22 in 10.0 mi North 10.4 mph - N/A   Overcast
12:55 AM 35.8 °F 28.8 °F 32.9 °F 89% 30.21 in 10.0 mi North 9.2 mph - N/A   Overcast
1:15 AM 35.4 °F 29.0 °F 33.4 °F 92% 30.21 in 10.0 mi North 8.1 mph 16.1 mph N/A   Light Drizzle
1:35 AM 35.1 °F 28.6 °F 33.8 °F 95% 30.22 in 10.0 mi North 8.1 mph - N/A   Overcast
1:55 AM 35.6 °F 29.2 °F 32.7 °F 89% 30.22 in 10.0 mi North 8.1 mph - N/A   Overcast
2:15 AM 35.6 °F 28.0 °F 32.0 °F 87% 30.21 in 10.0 mi NNW 10.4 mph - N/A   Overcast
2:35 AM 34.9 °F 26.2 °F 32.4 °F 91% 30.21 in 5.0 mi NNW 12.7 mph 21.9 mph N/A   Overcast
2:55 AM 34.7 °F 25.9 °F 32.9 °F 93% 30.21 in 7.0 mi North 12.7 mph 18.4 mph N/A   Overcast
3:15 AM 34.7 °F 26.4 °F 32.0 °F 90% 30.21 in 10.0 mi North 11.5 mph 18.4 mph N/A   Overcast
3:35 AM 35.2 °F 27.1 °F 30.6 °F 83% 30.22 in 10.0 mi North 11.5 mph 16.1 mph N/A   Overcast
3:55 AM 35.1 °F 30.1 °F 30.4 °F 83% 30.22 in 10.0 mi NNW 5.8 mph - N/A   Overcast
4:15 AM 35.6 °F 29.9 °F 30.2 °F 81% 30.22 in 10.0 mi NNW 6.9 mph - N/A   Overcast
4:35 AM 35.6 °F 28.6 °F 30.9 °F 83% 30.23 in 10.0 mi NNW 9.2 mph 16.1 mph N/A   Overcast
4:55 AM 35.2 °F 28.8 °F 31.5 °F 86% 30.23 in 10.0 mi NNW 8.1 mph - N/A   Overcast
5:15 AM 35.1 °F 27.9 °F 32.2 °F 89% 30.23 in 10.0 mi North 9.2 mph - N/A   Overcast
5:35 AM 35.1 °F 27.9 °F 33.3 °F 93% 30.23 in 10.0 mi North 9.2 mph - N/A   Overcast
5:55 AM 35.2 °F 28.8 °F 33.4 °F 93% 30.23 in 10.0 mi North 8.1 mph - N/A   Overcast
6:15 AM 35.6 °F 29.2 °F 32.9 °F 90% 30.23 in 10.0 mi NNW 8.1 mph - N/A   Overcast
6:35 AM 36.1 °F 29.9 °F 32.2 °F 86% 30.24 in 10.0 mi NNW 8.1 mph - N/A   Overcast
6:55 AM 36.7 °F 30.5 °F 32.0 °F 83% 30.25 in 10.0 mi NNW 8.1 mph - N/A   Overcast
7:15 AM 37.0 °F 31.0 °F 31.8 °F 81% 30.26 in 10.0 mi NNW 8.1 mph - N/A   Overcast
7:35 AM 37.0 °F 29.8 °F 31.1 °F 79% 30.26 in 10.0 mi NNW 10.4 mph 16.1 mph N/A   Overcast
7:55 AM 37.4 °F 29.8 °F 31.1 °F 78% 30.27 in 10.0 mi NNW 11.5 mph 16.1 mph N/A   Overcast
8:15 AM 38.3 °F 31.4 °F 31.8 °F 77% 30.27 in 10.0 mi NW 10.4 mph 18.4 mph N/A   Overcast
8:35 AM 38.5 °F 29.6 °F 32.0 °F 78% 30.27 in 10.0 mi NNW 16.1 mph 21.9 mph N/A   Overcast
8:55 AM 38.7 °F 31.8 °F 31.6 °F 76% 30.28 in 10.0 mi NW 10.4 mph 18.4 mph N/A   Overcast
9:15 AM 39.4 °F 30.7 °F 31.8 °F 74% 30.29 in 10.0 mi NNW 16.1 mph 23.0 mph N/A   Overcast
9:35 AM 40.6 °F 34.3 °F 31.3 °F 69% 30.29 in 10.0 mi NNW 10.4 mph 17.3 mph N/A   Mostly Cloudy
9:55 AM 41.7 °F 35.2 °F 31.5 °F 67% 30.29 in 10.0 mi NNW 11.5 mph 19.6 mph N/A   Clear
10:15 AM 42.8 °F 37.5 °F 30.7 °F 62% 30.30 in 10.0 mi NNW 9.2 mph 20.7 mph N/A   Clear
10:35 AM 43.7 °F 36.3 °F 30.9 °F 61% 30.30 in 10.0 mi North 16.1 mph 21.9 mph N/A   Scattered Clouds
10:55 AM 43.9 °F 36.5 °F 30.7 °F 60% 30.30 in 10.0 mi NNW 16.1 mph 23.0 mph N/A   Clear
11:15 AM 45.5 °F 39.6 °F 30.6 °F 56% 30.30 in 10.0 mi North 12.7 mph 23.0 mph N/A   Clear
11:35 AM 46.4 °F 40.4 °F 30.6 °F 54% 30.29 in 10.0 mi North 13.8 mph 23.0 mph N/A   Clear
11:55 AM 47.3 °F - 30.0 °F 51% 30.29 in 10.0 mi North 19.6 mph 26.5 mph N/A   Clear
12:15 PM 48.0 °F - 29.7 °F 49% 30.28 in 10.0 mi North 17.3 mph 23.0 mph N/A   Clear
12:35 PM 49.3 °F - 28.9 °F 45% 30.28 in 10.0 mi North 18.4 mph 25.3 mph N/A   Clear
12:55 PM 49.6 °F - 28.4 °F 44% 30.27 in 10.0 mi North 19.6 mph 25.3 mph N/A   Clear
1:15 PM 50.4 °F - 27.7 °F 42% 30.26 in 10.0 mi NNW 16.1 mph 25.3 mph N/A   Clear
1:35 PM 51.1 °F - 27.1 °F 40% 30.26 in 10.0 mi North 13.8 mph 25.3 mph N/A   Clear
1:55 PM 51.3 °F - 26.2 °F 38% 30.25 in 10.0 mi North 23.0 mph 31.1 mph N/A   Clear
2:15 PM 51.8 °F - 24.1 °F 34% 30.25 in 10.0 mi North 18.4 mph 33.4 mph N/A   Clear
2:35 PM 51.8 °F - 24.4 °F 34% 30.25 in 10.0 mi North 18.4 mph 33.4 mph N/A   Clear
2:55 PM 52.0 °F - 23.5 °F 33% 30.25 in 10.0 mi North 20.7 mph 29.9 mph N/A   Clear
3:15 PM 51.8 °F - 23.2 °F 33% 30.25 in 10.0 mi North 18.4 mph 33.4 mph N/A   Clear
3:35 PM 51.6 °F - 22.5 °F 32% 30.26 in 10.0 mi NNW 23.0 mph 31.1 mph N/A   Clear
3:55 PM 51.3 °F - 21.4 °F 31% 30.26 in 10.0 mi North 24.2 mph 35.7 mph N/A   Clear
4:15 PM 50.5 °F - 21.0 °F 31% 30.27 in 10.0 mi North 18.4 mph 32.2 mph N/A   Clear
4:35 PM 50.0 °F - 20.8 °F 32% 30.29 in 10.0 mi North 18.4 mph 31.1 mph N/A   Clear
4:55 PM 48.9 °F - 21.7 °F 34% 30.29 in 10.0 mi North 21.9 mph 33.4 mph N/A   Clear
5:15 PM 47.5 °F - 22.1 °F 37% 30.30 in 10.0 mi North 15.0 mph 23.0 mph N/A   Clear
5:35 PM 46.6 °F - 22.8 °F 39% 30.31 in 10.0 mi North 15.0 mph 26.5 mph N/A   Clear
5:55 PM 45.7 °F 40.2 °F 24.1 °F 43% 30.32 in 10.0 mi North 11.5 mph 19.6 mph N/A   Clear
6:15 PM 45.5 °F 39.9 °F 24.6 °F 44% 30.32 in 10.0 mi NNW 11.5 mph 16.1 mph N/A   Clear
6:35 PM 45.0 °F 40.1 °F 25.2 °F 46% 30.33 in 10.0 mi NNW 9.2 mph 18.4 mph N/A   Clear
6:55 PM 44.4 °F 39.5 °F 25.7 °F 48% 30.33 in 10.0 mi NNW 9.2 mph - N/A   Clear
7:15 PM 43.2 °F 39.0 °F 26.6 °F 52% 30.34 in 10.0 mi NNW 6.9 mph - N/A   Clear
7:35 PM 43.0 °F 39.5 °F 26.8 °F 53% 30.35 in 10.0 mi NNW 5.8 mph - N/A   Clear
7:55 PM 41.2 °F 37.3 °F 27.5 °F 58% 30.35 in 10.0 mi NW 5.8 mph - N/A   Clear
8:15 PM 41.0 °F 38.0 °F 28.0 °F 60% 30.36 in 10.0 mi NW 4.6 mph - N/A   Clear
8:35 PM 39.9 °F 35.8 °F 28.9 °F 65% 30.36 in 10.0 mi NW 5.8 mph - N/A   Clear
8:55 PM 40.1 °F 36.9 °F 29.1 °F 65% 30.37 in 10.0 mi NW 4.6 mph - N/A   Clear
9:15 PM 40.3 °F 37.1 °F 29.1 °F 64% 30.37 in 10.0 mi NNW 4.6 mph - N/A   Clear
9:35 PM 41.0 °F 36.4 °F 29.1 °F 63% 30.37 in 10.0 mi NNW 6.9 mph - N/A   Clear
9:55 PM 41.0 °F 36.4 °F 28.4 °F 61% 30.38 in 10.0 mi NNW 6.9 mph - N/A   Clear
10:15 PM 40.5 °F 35.8 °F 28.4 °F 62% 30.39 in 10.0 mi North 6.9 mph - N/A   Clear
10:35 PM 40.1 °F 34.7 °F 28.0 °F 62% 30.39 in 10.0 mi NNW 8.1 mph - N/A   Clear
10:55 PM 39.2 °F 33.0 °F 28.2 °F 65% 30.40 in 10.0 mi North 9.2 mph - N/A   Clear
11:15 PM 37.6 °F 31.6 °F 28.2 °F 69% 30.41 in 10.0 mi North 8.1 mph - N/A   Clear
11:35 PM 37.4 °F 30.3 °F 27.7 °F 68% 30.42 in 10.0 mi North 10.4 mph - N/A   Clear
11:55 PM 37.9 °F 31.5 °F 26.6 °F 64% 30.42 in 10.0 mi North 9.2 mph - N/A   Clear